Sarasota, FL

7:55 PM EDT on May 22, 2018 (GMT -0400)
Sarasota-bradenton

Weather History for KSRQ - March, 2014

Change the Weather History Date:

Friday, March 7, 2014

  Actual Average Record
Temperature  
Mean Temperature 62 °F 65 °F  
Max Temperature 69 °F 75 °F 89 °F (1964)
Min Temperature 54 °F 56 °F 32 °F (1920)
Degree Days  
Heating Degree Days 3 2  
Month to date heating degree days 6 19  
Since 1 July heating degree days 314 437  
Cooling Degree Days 0 3  
Month to date cooling degree days 18 21  
Year to date cooling degree days 134 125  
Growing Degree Days 12 (Base 50)    
Moisture  
Dew Point 55 °F    
Average Humidity 75    
Maximum Humidity 93    
Minimum Humidity 63    
Precipitation  
Precipitation T in 0.14 in 2.85 in (1987)
Month to date precipitation 1.03 0.92  
Year to date precipitation 4.65 6.11  
Sea Level Pressure  
Sea Level Pressure 29.90 in    
Wind  
Wind Speed 13 mph (NW)    
Max Wind Speed 23 mph    
Max Gust Speed 29 mph    
Visibility 10 miles    
Events      
T = Trace of Precipitation, MM = Missing Value Source: NWS Daily Summary

Daily Weather History Graph

Daily Weather History Graph

Search for Another Location

Airport or City:

Astronomy

Mar. 07, 2014 Rise Set
Actual Time 6:48 AM EST 6:34 PM EST
Civil Twilight 6:24 AM EST 6:57 PM EST
Nautical Twilight 5:57 AM EST 7:24 PM EST
Astronomical Twilight 5:30 AM EST 7:51 PM EST
Moon 11:12 AM EST (3/7) 12:07 AM EST (3/7)
Length of Visible Light 12h 32m
Length of Day
11h 46m
Waxing Crescent, 42% of the Moon is Illuminated
Mar 7
Waxing Crescent
Mar 8
First Quarter
Mar 16
Full
Mar 23
Last Quarter
Mar 30
New

Hourly Weather History & Observations

Time (EST) Temp. Dew Point Humidity Pressure Visibility Wind Dir Wind Speed Gust Speed Precip Events Conditions
12:23 AM 69.1 °F 66.0 °F 90% 29.80 in 10.0 mi WSW 13.8 mph 21.9 mph N/A   Mostly Cloudy
12:41 AM 68.0 °F 63.0 °F 84% 29.80 in 10.0 mi WNW 13.8 mph - N/A   Mostly Cloudy
12:53 AM 68.0 °F 62.1 °F 81% 29.79 in 10.0 mi WNW 12.7 mph - N/A   Scattered Clouds
1:53 AM 66.0 °F 61.0 °F 84% 29.79 in 10.0 mi NW 9.2 mph - N/A   Mostly Cloudy
2:38 AM 66.0 °F 62.1 °F 87% 29.79 in 10.0 mi NW 5.8 mph - N/A   Mostly Cloudy
2:53 AM 64.9 °F 62.1 °F 90% 29.79 in 10.0 mi WNW 4.6 mph - N/A   Overcast
3:53 AM 64.9 °F 61.0 °F 87% 29.79 in 10.0 mi NW 8.1 mph - 0.00 in   Overcast
4:20 AM 64.9 °F 61.0 °F 87% 29.79 in 10.0 mi NW 6.9 mph - N/A   Mostly Cloudy
4:53 AM 64.9 °F 60.1 °F 84% 29.81 in 10.0 mi NW 9.2 mph - N/A   Overcast
5:53 AM 64.0 °F 57.9 °F 80% 29.83 in 10.0 mi NW 6.9 mph - N/A   Mostly Cloudy
6:53 AM 63.0 °F 57.0 °F 81% 29.85 in 10.0 mi NW 6.9 mph - N/A   Mostly Cloudy
7:53 AM 64.9 °F 59.0 °F 81% 29.87 in 10.0 mi NW 9.2 mph - N/A   Overcast
8:53 AM 64.0 °F 54.0 °F 70% 29.91 in 10.0 mi NW 15.0 mph 25.3 mph N/A   Mostly Cloudy
9:53 AM 64.9 °F 54.0 °F 68% 29.93 in 10.0 mi NNW 19.6 mph 24.2 mph N/A   Mostly Cloudy
10:53 AM 64.0 °F 52.0 °F 65% 29.95 in 10.0 mi NW 17.3 mph - N/A   Mostly Cloudy
11:17 AM 63.0 °F 52.0 °F 67% 29.95 in 10.0 mi NW 16.1 mph - N/A   Overcast
11:41 AM 63.0 °F 52.0 °F 67% 29.95 in 10.0 mi NW 12.7 mph - N/A   Overcast
11:53 AM 64.9 °F 53.1 °F 65% 29.95 in 10.0 mi NNW 13.8 mph 21.9 mph N/A   Mostly Cloudy
12:53 PM 66.0 °F 53.1 °F 63% 29.93 in 10.0 mi NNW 13.8 mph 21.9 mph N/A   Overcast
1:28 PM 64.9 °F 52.0 °F 63% 29.93 in 10.0 mi NNW 17.3 mph - N/A   Overcast
1:45 PM 64.0 °F 52.0 °F 65% 29.92 in 10.0 mi NNW 19.6 mph 24.2 mph N/A   Mostly Cloudy
1:53 PM 64.0 °F 52.0 °F 65% 29.92 in 10.0 mi NW 17.3 mph - N/A   Mostly Cloudy
2:53 PM 63.0 °F 51.1 °F 65% 29.92 in 10.0 mi NW 13.8 mph 23.0 mph N/A   Overcast
3:53 PM 62.1 °F 51.1 °F 67% 29.92 in 10.0 mi NW 15.0 mph - N/A   Overcast
4:53 PM 61.0 °F 51.1 °F 70% 29.94 in 10.0 mi NW 16.1 mph 20.7 mph N/A   Overcast
5:53 PM 59.0 °F 51.1 °F 75% 29.95 in 10.0 mi NNW 12.7 mph 20.7 mph N/A   Overcast
6:53 PM 59.0 °F 50.0 °F 72% 29.96 in 10.0 mi NW 18.4 mph 24.2 mph N/A   Overcast
7:53 PM 57.9 °F 48.9 °F 72% 30.00 in 10.0 mi NW 18.4 mph - N/A   Overcast
8:53 PM 57.0 °F 48.0 °F 72% 30.03 in 10.0 mi NNW 13.8 mph 24.2 mph N/A   Overcast
9:53 PM 55.9 °F 48.0 °F 75% 30.05 in 10.0 mi NNW 11.5 mph - N/A   Overcast
10:53 PM 55.0 °F 48.0 °F 77% 30.05 in 10.0 mi North 8.1 mph - N/A   Overcast
11:53 PM 54.0 °F 46.9 °F 77% 30.06 in 10.0 mi North 8.1 mph - N/A   Overcast